STARLINK-1365, 45590

Orbit data source: Space-Track

STARLINK-1365, 45590 is a payload satellite owned by SpaceX/Seattle (US) in LEO that was launched on Wed, 22 Apr 2020 UTC via an FALCON 9 launch vehicle from the Air Force Eastern Test Range (AFETR). Payload-class satellites include a variety of spacecraft equipped with specific instruments for various scientific and technological missions. These include communications satellites like Starlink; space stations such as the ISS; scientific satellites like the Hubble; Earth observation satellites from companies like Planet Labs, Umbra, and HawkEye 360; GPS; miniature CubeSats for education and research; and military/defense satellites.

Loading next visibility...
Identifier
45590, 2020-025BM
Orbit
LEO
Country
Flag of USUS
Related business
Manufacturer
SpaceX/Seattle
Mission
Partially operational Commercial Communications
Bus & Motor
STARLINK, Unknown motor
Mass
260 kg wet, ~248 kg dry
Launch date (UTC)
2020-04-22 (6 years ago)
Launch vehicle
FALCON 9
Launch site
Air Force Eastern Test Range (AFETR)
Object type
Payload
Rocket body
Debris
Shape & HBR
Box + 1 Pan, 10.1 m
Radar Cross Section
13.562 m², Large (>1 m²)

Expand to show TLE details & history
Last TLE update: 18 hours ago

TLE from 18 hours ago
0 STARLINK-1365
1 45590U 20025BM  26254.74012318  .00061093  00000-0  41234-3 0  9993
2 45590  53.0385 265.9864 0004343  32.7111 327.4176 15.74515933354340
Epoch: 2026-09-11T17:45Z
TLE epoch observation values (Epoch: 2026-09-11T17:45:46.642Z)
Latitude
-0.00001°
Longitude
8.78291°
Altitude
344.452 km
Speed
7.705 km/s
True Right ascension
17h 43m 56s
True Declination
0° 00' 00"
Sunlit
Object was in daylight at epoch
Visualization orbit readout
Latitude
Unknown
Longitude
Unknown
Altitude
Unknown
Speed
Unknown
Apparent Right ascension
Unknown
Apparent Declination
Unknown
Sunlit
N/A
Visualization observer readout
Local Sidereal Time
04:30:49
Azimuth
Unknown
Elevation
Unknown
Doppler factor
Unknown
Orbital elements
Apogee altitude
349.211 km
Perigee altitude
343.37 km
Semi-major axis
6,724.427 km
Eccentricity
0.00043
Inclination
53.0385°
RAAN
265.9864°
Arg. of periapsis
32.7111°
True anomaly
327.39079°
Mean anomaly
327.4176°
Eccentric anomaly
327.4042°
Mean motion
3.93605 °/min
Orbital period
91.46 mins
BSTAR
0.00041234
Loading maneuver chart data...
Computing Atmospheric mass density...

Documentation

Showing up to 5 results
|